Location: ????????
(55.4000°N, 39.1167°E)
Time: 07:33:23
(UTC+00:00)

DELTA 2 DEB (DPAF) - Pass Details

Date: 19 May 2025
Orbit: 538 x 548 km, 98.4° (Epoch: 15 June)

Event Time Altitude Azimuth Distance (km) Brightness Sun altitude
Rises 19:26:31 0° 18° (NNE) 2,735 8.1 -10.9°
Reaches altitude 10° 19:28:41 10° 22° (NNE) 1,834 7.1 -11.0°
Maximum altitude 19:32:37 61° 103° (ESE) 626 3.9 -11.3°
Enters shadow 19:35:53 14° 183° (S) 1,568 5.6 -11.5°
